#timestamp,LO_Frequency,Hit,StdDev 
1702663215.0,286046997.0,N
1702663216.0,286046997.0,N
1702663235.8,286046996.6,N
1702663255.6,286046998.7,N
1702663275.5,286046999.1,N
1702663295.3,286047001.1,N
1702663315.1,286046998.8,N
1702663335.9,286046996.6,N
1702663355.7,286046998.9,N
1702663375.6,286046997.8,N
1702663395.4,286046999.6,N
1702663415.2,286046997.2,N
1702663435.1,286046996.9,N
1702663436.0,286046996.9,N
1702663455.8,286046999.1,N
1702663475.7,286046998.1,N
1702663495.5,286046999.0,N
1702663515.3,286046996.7,N
1702663535.2,286046997.3,N
1702663555.0,286046994.9,N
1702663555.9,286046994.9,N
1702663575.8,286046996.5,N
1702663595.6,286046998.7,N
1702663615.4,286047001.1,N
1702663635.3,286047000.0,N
1702663655.1,286047000.8,N
1702663675.8,286047000.8,N
1702663695.7,286047000.5,N
1702663715.5,286047000.3,N
1702663735.4,286047001.1,N
1702663755.2,286046998.2,N
1702663775.0,286046999.3,N
1702663775.9,286046999.3,N
1702663795.8,286046998.7,N
1702663815.6,286046998.8,N
1702663835.4,286046996.5,N
1702663855.3,286046999.0,N
1702663875.1,286046999.4,N
1702663895.9,286046997.4,N
1702663915.7,286046996.5,N
1702663935.5,286046997.0,N
1702663955.4,286046998.5,N
1702663975.2,286047000.7,N
1702663995.0,286047000.1,N
1702663996.0,286047000.1,N
1702664015.8,286047002.3,N
1702664035.6,286047002.3,N
1702664055.5,286047000.2,N
1702664075.3,286047002.5,N
1702664095.1,286047000.6,N
1702664115.9,286046998.9,N
1702664135.7,286046998.7,N
1702664155.6,286046998.1,N
1702664175.4,286046998.2,N
1702664195.2,286046998.5,N
1702664215.1,286047000.4,N
1702664216.0,286047000.4,N
1702664235.8,286046998.1,N
1702664255.6,286047000.4,N
1702664275.5,286047000.9,N
1702664295.3,286047000.7,N
1702664315.2,286046998.4,N
1702664335.9,286046999.3,N
1702664355.7,286046998.4,N
1702664375.6,286046999.1,N
1702664395.4,286046998.4,N
1702664415.2,286046999.1,N
1702664435.1,286046999.1,N
1702664436.0,286046999.1,N
1702664455.8,286046999.0,N
1702664475.7,286047000.3,N
1702664495.5,286047002.4,N
1702664515.4,286047002.8,N
1702664535.2,286046998.2,N
1702664555.0,286047000.2,N
1702664555.9,286047000.2,N
1702664575.8,286046999.8,N
1702664595.6,286047003.9,N
1702664615.4,286047001.7,N
1702664635.3,286047002.1,N
1702664655.1,286047002.0,N
1702664675.9,286047002.8,N
1702664695.7,286047000.2,N
1702664715.5,286047000.0,N
1702664735.4,286046998.1,N
1702664755.2,286047000.7,N
1702664775.0,286047000.0,N
1702664776.0,286047000.0,N
1702664795.8,286047004.4,N
1702664815.6,286047004.1,N
1702664835.5,286047001.9,N
1702664855.3,286047002.8,N
1702664875.1,286047002.3,N
1702664895.9,286047002.0,N
1702664915.7,286047002.0,N
1702664935.6,286047001.4,N
1702664955.4,286047003.8,N
1702664975.2,286047003.8,N
1702664995.1,286047003.7,N
1702664996.0,286047003.7,N
1702665015.8,286047004.1,N
1702665035.6,286047004.0,N
1702665055.5,286047002.6,N
1702665075.3,286047001.3,N
1702665095.2,286046999.8,N
1702665115.9,286047001.2,N
1702665135.7,286046999.0,N
1702665155.6,286046999.4,N
1702665175.4,286046998.9,N
1702665195.2,286046996.6,N
1702665215.1,286047001.0,N
1702665216.0,286047001.0,N
1702665235.8,286046999.7,N
1702665255.7,286047002.1,N
1702665275.5,286047001.4,N
1702665295.3,286047003.1,N
1702665315.2,286047001.3,N
1702665335.0,286047001.4,N
1702665335.9,286047001.4,N
1702665355.8,286047001.8,N
1702665375.6,286047000.1,N
1702665395.4,286047000.2,N
1702665415.3,286046999.7,N
1702665435.1,286047001.9,N
1702665455.8,286047000.2,N
1702665475.7,286046999.9,N
1702665495.5,286047000.2,N
1702665515.4,286047002.2,N
1702665535.2,286047002.5,N
1702665555.0,286046999.8,N
1702665555.9,286046999.8,N
1702665575.8,286047002.8,N
1702665595.6,286046998.8,N
1702665615.4,286046998.3,N
1702665635.3,286046998.9,N
1702665655.1,286047000.5,N
1702665675.9,286047000.6,N
1702665695.7,286046998.5,N
1702665715.5,286046998.1,N
1702665735.4,286047000.9,N
1702665755.2,286047002.5,N
1702665775.0,286047002.7,N
1702665775.9,286047002.7,N
1702665795.8,286047001.3,N
1702665815.6,286047001.8,N
1702665835.5,286047001.9,N
1702665855.3,286047002.6,N
1702665875.1,286046999.7,N
1702665895.9,286047002.0,N
1702665915.7,286047001.7,N
1702665935.5,286047001.1,N
1702665955.4,286046998.2,N
1702665975.2,286047000.6,N
1702665995.1,286047000.9,N
1702665996.0,286047000.9,N
1702666015.8,286046999.7,N
1702666035.6,286047002.8,N
1702666055.5,286047000.2,N
1702666075.3,286046998.1,N
1702666095.2,286047000.0,N
1702666115.9,286047000.7,N
1702666135.7,286047000.1,N
1702666155.6,286047002.3,N
1702666175.4,286047002.2,N
1702666195.2,286047002.5,N
1702666215.1,286047004.0,N
1702666216.0,286047004.0,N
1702666235.8,286047003.6,N
1702666255.7,286047004.4,N
1702666275.5,286047004.3,N
1702666295.3,286047004.1,N
1702666315.2,286047003.3,N
1702666335.0,286047004.1,N
1702666335.9,286047004.1,N
1702666355.8,286047004.0,N
1702666375.6,286047003.3,N
1702666395.4,286047003.5,N
1702666415.3,286047003.3,N
1702666435.1,286047005.2,N
1702666455.8,286047003.6,N
1702666475.7,286047003.6,N
1702666495.5,286047001.8,N
1702666515.4,286047002.3,N
1702666535.2,286046999.7,N
1702666555.0,286046999.7,N
1702666555.9,286046999.7,N
1702666575.8,286046999.7,N
1702666595.6,286046999.9,N
1702666615.6,286047001.1,N
1702666635.4,286047000.7,N
1702666655.2,286046998.2,N
1702666675.1,286047001.2,N
1702666676.0,286047001.2,N
1702666695.8,286046998.6,N
1702666715.7,286046998.1,N
1702666735.5,286047001.1,N
1702666755.3,286047000.3,N
1702666775.2,286047000.0,N
1702666795.0,286046998.4,N
1702666795.9,286046998.4,N
